Orlando International, FL

5:47 PM EDT on April 30, 2017 (GMT -0400)
Orlando International

Weather History for KMCO - November, 2012

Change the Weather History Date:

Saturday, November 3, 2012

  Actual Average Record
Temperature  
Mean Temperature 69 °F 71 °F  
Max Temperature 84 °F 81 °F 90 °F (2015)
Min Temperature 53 °F 61 °F 36 °F (1954)
Degree Days  
Heating Degree Days 0 1  
Month to date heating degree days 0 3  
Since 1 July heating degree days 18 8  
Cooling Degree Days 4 7  
Month to date cooling degree days 8 21  
Year to date cooling degree days 3444 3228  
Growing Degree Days 18 (Base 50)    
Moisture  
Dew Point 57 °F    
Average Humidity 69    
Maximum Humidity 100    
Minimum Humidity 37    
Precipitation  
Precipitation 0.00 in 0.08 in 3.57 in (1987)
Month to date precipitation 0.00 0.23  
Year to date precipitation 39.58 46.21  
Sea Level Pressure  
Sea Level Pressure 30.09 in    
Wind  
Wind Speed 2 mph (WNW)    
Max Wind Speed 9 mph    
Max Gust Speed 14 mph    
Visibility 10 miles    
Events      
T = Trace of Precipitation, MM = Missing Value Source: NWS Daily Summary

Daily Weather History Graph

Daily Weather History Graph

Search for Another Location

Airport or City:

Trip Planner

Search our weather history database for the weather conditions in past years. The results will help you decide how hot, cold, wet, or windy it might be!

Date:

Astronomy

Nov. 03, 2012 Rise Set
Actual Time 7:38 AM EDT 6:38 PM EDT
Civil Twilight 7:14 AM EDT 7:02 PM EDT
Nautical Twilight 6:46 AM EDT 7:30 PM EDT
Astronomical Twilight 6:18 AM EDT 7:58 PM EDT
Moon 10:25 PM EDT (11/3) 11:33 AM EDT (11/3)
Length of Visible Light 11h 48m
Length of Day
10h 59m
Waning Gibbous, 80% of the Moon is Illuminated
Nov 3
Waning Gibbous
Nov 6
Last Quarter
Nov 13
New
Nov 20
First Quarter
Nov 28
Full

Hourly Weather History & Observations

Time (EDT) Temp. Heat Index Dew Point Humidity Pressure Visibility Wind Dir Wind Speed Gust Speed Precip Events Conditions
12:53 AM 60.1 °F - 51.1 °F 72% 30.09 in 10.0 mi WSW 4.6 mph - N/A   Clear
1:53 AM 60.1 °F - 53.1 °F 78% 30.08 in 10.0 mi WSW 4.6 mph - N/A   Clear
2:53 AM 57.9 °F - 53.1 °F 84% 30.07 in 10.0 mi West 4.6 mph - N/A   Clear
3:53 AM 57.0 °F - 53.1 °F 87% 30.07 in 10.0 mi Calm Calm - N/A   Clear
4:53 AM 57.0 °F - 54.0 °F 89% 30.07 in 10.0 mi Calm Calm - N/A   Clear
5:53 AM 55.9 °F - 54.0 °F 93% 30.09 in 10.0 mi Calm Calm - N/A   Clear
6:53 AM 54.0 °F - 54.0 °F 100% 30.11 in 10.0 mi Calm Calm - N/A   Clear
7:53 AM 55.0 °F - 54.0 °F 96% 30.13 in 10.0 mi Calm Calm - N/A   Clear
8:53 AM 62.1 °F - 57.9 °F 86% 30.13 in 10.0 mi Calm Calm - N/A   Clear
9:53 AM 71.1 °F - 63.0 °F 75% 30.14 in 10.0 mi Variable 3.5 mph - N/A   Clear
10:53 AM 75.0 °F - 64.0 °F 69% 30.14 in 10.0 mi WNW 4.6 mph - N/A   Clear
11:53 AM 78.1 °F - 64.0 °F 62% 30.12 in 10.0 mi North 5.8 mph - N/A   Clear
12:53 PM 80.1 °F 80.9 °F 60.1 °F 50% 30.11 in 10.0 mi Calm Calm - N/A   Partly Cloudy
1:53 PM 82.0 °F 81.6 °F 55.9 °F 41% 30.09 in 10.0 mi NNE 4.6 mph - N/A   Partly Cloudy
2:53 PM 82.9 °F 82.8 °F 59.0 °F 44% 30.07 in 10.0 mi North 5.8 mph - N/A   Partly Cloudy
3:53 PM 81.0 °F 81.0 °F 57.0 °F 44% 30.06 in 10.0 mi Calm Calm - N/A   Partly Cloudy
4:53 PM 84.0 °F 83.0 °F 55.9 °F 38% 30.06 in 10.0 mi Calm Calm - N/A   Partly Cloudy
5:53 PM 80.1 °F 80.1 °F 55.0 °F 42% 30.06 in 10.0 mi Calm Calm - N/A   Partly Cloudy
6:53 PM 72.0 °F - 60.1 °F 66% 30.07 in 10.0 mi South 4.6 mph - N/A   Clear
7:53 PM 70.0 °F - 61.0 °F 73% 30.08 in 10.0 mi East 5.8 mph - N/A   Clear
8:53 PM 68.0 °F - 61.0 °F 78% 30.10 in 10.0 mi ESE 3.5 mph - N/A   Clear
9:53 PM 66.0 °F - 60.1 °F 81% 30.10 in 10.0 mi Calm Calm - N/A   Clear
10:53 PM 64.0 °F - 60.1 °F 87% 30.11 in 10.0 mi SSW 3.5 mph - N/A   Clear
11:53 PM 63.0 °F - 60.1 °F 90% 30.11 in 10.0 mi Calm Calm - N/A   Clear